Pensacola, FL

3:13 PM CDT on June 20, 2018 (GMT -0500)
Pensacola Regional

Weather History for KPNS - January, 2016

Change the Weather History Date:

Friday, January 1, 2016

  Actual Average Record
Temperature  
Mean Temperature 50 °F 51 °F  
Max Temperature 53 °F 60 °F 80 °F (1975)
Min Temperature 46 °F 42 °F 23 °F (1928)
Degree Days  
Heating Degree Days 15 14  
Month to date heating degree days 15 14  
Since 1 July heating degree days 209 596  
Cooling Degree Days 0 0  
Month to date cooling degree days 0 0  
Year to date cooling degree days 0 0  
Moisture  
Dew Point 41 °F    
Average Humidity 79    
Maximum Humidity 93    
Minimum Humidity 65    
Precipitation  
Precipitation 0.12 in 0.14 in 4.84 in (1936)
Month to date precipitation 0.12 0.14  
Year to date precipitation 0.12 0.14  
Snow  
Snow 0.00 in 0.00 in T in (2002)
Month to date snowfall 0.0  
Since 1 July snowfall 0.0 0.0  
Snow Depth 0.00 in    
Sea Level Pressure  
Sea Level Pressure 30.23 in    
Wind  
Wind Speed 12 mph (North)    
Max Wind Speed 22 mph    
Max Gust Speed 29 mph    
Visibility 10 miles    
Events Rain    
T = Trace of Precipitation, MM = Missing Value Source: NWS Daily Summary

Daily Weather History Graph

Daily Weather History Graph

Search for Another Location

Airport or City:

Astronomy

Jan. 01, 2016 Rise Set
Actual Time 6:45 AM CST 4:58 PM CST
Civil Twilight 6:19 AM CST 5:25 PM CST
Nautical Twilight 5:49 AM CST 5:55 PM CST
Astronomical Twilight 5:19 AM CST 6:24 PM CST
Moon 11:55 PM CST (1/1) 11:22 AM CST (1/1)
Length of Visible Light 11h 06m
Length of Day
10h 13m
Waning Gibbous, 55% of the Moon is Illuminated
Jan 1
Waning Gibbous
Jan 1
Last Quarter
Jan 9
New
Jan 16
First Quarter
Jan 23
Full

Hourly Weather History & Observations

Time (CST) Temp. Windchill Dew Point Humidity Pressure Visibility Wind Dir Wind Speed Gust Speed Precip Events Conditions
12:53 AM 53.1 °F - 48.0 °F 83% 30.16 in 10.0 mi North 8.1 mph - 0.02 in Rain Light Rain
1:53 AM 53.1 °F - 46.9 °F 80% 30.15 in 10.0 mi North 10.4 mph - 0.00 in   Overcast
2:53 AM 52.0 °F - 44.1 °F 74% 30.16 in 10.0 mi North 12.7 mph - N/A   Overcast
3:53 AM 52.0 °F - 44.1 °F 74% 30.15 in 10.0 mi North 11.5 mph - N/A   Overcast
4:53 AM 51.1 °F - 43.0 °F 74% 30.17 in 10.0 mi North 13.8 mph 23.0 mph N/A   Overcast
5:53 AM 51.1 °F - 42.1 °F 71% 30.19 in 10.0 mi North 13.8 mph - N/A   Overcast
6:53 AM 50.0 °F - 39.9 °F 68% 30.21 in 10.0 mi North 15.0 mph 26.5 mph N/A   Overcast
7:53 AM 48.9 °F - 42.1 °F 77% 30.27 in 10.0 mi NNW 10.4 mph - 0.00 in Rain Light Rain
8:53 AM 46.0 °F 40.6 °F 43.0 °F 89% 30.30 in 4.0 mi North 11.5 mph - 0.03 in Rain Light Rain
9:53 AM 46.9 °F - 44.1 °F 90% 30.25 in 4.0 mi NNE 9.2 mph - 0.07 in Rain Light Rain
10:53 AM 48.0 °F - 44.1 °F 86% 30.22 in 10.0 mi NNE 11.5 mph - 0.01 in   Mostly Cloudy
11:53 AM 50.0 °F - 45.0 °F 83% 30.23 in 10.0 mi NNW 16.1 mph - N/A   Overcast
12:53 PM 50.0 °F - 43.0 °F 77% 30.24 in 10.0 mi NNW 15.0 mph 24.2 mph N/A   Overcast
1:53 PM 48.9 °F - 41.0 °F 74% 30.21 in 10.0 mi North 10.4 mph - N/A   Overcast
2:53 PM 48.0 °F - 41.0 °F 77% 30.21 in 10.0 mi North 12.7 mph - N/A   Overcast
3:53 PM 48.9 °F - 39.0 °F 69% 30.21 in 10.0 mi North 12.7 mph - N/A   Overcast
4:53 PM 48.0 °F - 39.0 °F 71% 30.22 in 10.0 mi North 12.7 mph 20.7 mph 0.00 in   Overcast
5:53 PM 46.9 °F - 37.9 °F 71% 30.25 in 10.0 mi North 12.7 mph 21.9 mph 0.00 in   Partly Cloudy
6:53 PM 46.9 °F - 37.9 °F 71% 30.28 in 10.0 mi North 12.7 mph - N/A   Clear
7:53 PM 46.0 °F 39.6 °F 37.9 °F 73% 30.30 in 10.0 mi North 15.0 mph 21.9 mph 0.00 in Rain Light Rain
8:53 PM 46.0 °F 40.6 °F 36.0 °F 68% 30.31 in 10.0 mi North 11.5 mph 21.9 mph 0.00 in   Partly Cloudy
9:53 PM 46.0 °F 41.4 °F 35.1 °F 66% 30.30 in 10.0 mi North 9.2 mph 18.4 mph N/A   Clear
10:53 PM 46.0 °F 41.9 °F 35.1 °F 66% 30.28 in 10.0 mi North 8.1 mph 20.7 mph N/A   Clear
11:53 PM 46.0 °F 40.2 °F 34.0 °F 63% 30.30 in 10.0 mi North 12.7 mph - N/A   Clear